Regional Weather Roundup
Issued by NWS Wakefield, VA

Home | Current Version | Previous Version | Text Only | Print | Product List | Glossary Off
Versions: 1 2 3 4 5 6 7 8 9 10 11 12 13 14 15 16 17 18 19 20 21 22 23 24 25 26 27 28 29 30 31 32 33 34 35 36 37 38 39 40 41 42 43 44 45 46 47 48 49 50

000
ASUS41 KAKQ 222114
RWRAKQ

REGIONAL WEATHER ROUNDUP
NATIONAL WEATHER SERVICE WAKEFIELD VA
500 PM EDT FRI MAY 22 2015

Note: "fair" indicates few or no clouds below 12,000 feet with no
significant weather and/or obstructions to visibility. * = Denotes
station may not report precipitation (e.g., rain,snow,etc.),
thunder or fog.

VAZ042-051-052>054-056-222200-
NORTHERN VIRGINIA

CITY           SKY/WX    TMP DP  RH WIND       PRES   REMARKS
WASH NATIONAL  MOSUNNY   79  42  26 NW22G35   30.08F
DULLES         MOSUNNY   73  41  31 W8G20     30.09S
FORT BELVOIR   SUNNY     75  43  31 W9        30.09S
QUANTICO       MOSUNNY   74  42  31 W9        30.11S
FREDERICKSBRG* SUNNY     77  45  32 SW9G17    30.11S
STAFFORD*      MOSUNNY   74  40  29 W5        30.15S
WARRENTON      MOSUNNY   74  46  35 W6        30.10S
CULPEPER*      MOSUNNY   74  42  31 W14G24    30.11S
MANASSAS*      MOSUNNY   75  43  31 NW14      30.09F
LEESBURG*      SUNNY     75  45  33 W20G25    30.09S
WINCHESTER     MOSUNNY   73  27  17 W22G28    30.10S
FRONT ROYAL*   MOCLDY    70  39  32 NW12G21   30.10R
LURAY*         FAIR      73  43  33 W12       30.12S
$$

VAZ048-049-060>072-079>083-222200-
CENTRAL AND SOUTH CENTRAL VIRGINIA

CITY           SKY/WX    TMP DP  RH WIND       PRES   REMARKS
RICHMOND       MOSUNNY   76  39  26 W12       30.14S
CHESTERFIELD*  NOT AVBL
PETERSBURG*    SUNNY     75  40  28 SW5       30.16S
HANOVER        SUNNY     73  40  30 SW7       30.15S
TAPPAHANNOCK*  SUNNY     76  32  20 SW8       30.13S
QUINTON*       FAIR      74  44  34 NW8       30.13S
CHARLOTTSVILLE MOSUNNY   74  42  31 VRB6      30.12F
GORDONSVILLE*  FAIR      73  44  35 S9        30.11F
ORANGE*        SUNNY     75  43  31 S12G17    30.13S
LOUISA*        SUNNY     73  45  35 SW6       30.12F
BUMPASS*       FAIR      73  45  36 SW3       30.13S
FARMVILLE*     SUNNY     74  40  29 S9        30.14S
CREWE*         FAIR      73  41  30 W5        30.16S
FORT PICKETT*  FAIR      73  41  31 SW7       30.16S
CHASE CITY*    FAIR      74  45  35 SW6       30.17S
CLARKSVILLE*   FAIR      72  41  33 W5        30.17S
SOUTH HILL*    SUNNY     73  44  35 CALM      30.22S
LAWRENCEVILLE* FAIR      72  43  35 W3        30.16S
EMPORIA*       SUNNY     72  43  35 CALM      30.18S
$$

VAZ088>098-222200-
SOUTHEAST VIRGINIA

CITY           SKY/WX    TMP DP  RH WIND       PRES   REMARKS
NORFOLK        SUNNY     72  41  32 W10       30.15S
VIRGINIA BEACH MOSUNNY   74  43  32 W8        30.15R
NORFOLK NAVAL  MOSUNNY   76  46  34 NW6       30.17R
WEST POINT*    SUNNY     76  37  23 W9        30.15S
SALUDA*        FAIR      73  44  35 SW5       30.12S
NEWPORT NEWS   SUNNY     77  45  32 W9        30.15S
LANGLEY AFB    SUNNY     72  46  39 W13       30.14S
FORT EUSTIS    SUNNY     72  51  47 W8        30.13S
WILLIAMSBURG*  SUNNY     77  48  36 W7        30.15S
HR EXEC AP*    FAIR      73  46  38 W7        30.17S
FRANKLIN*      SUNNY     73  42  32 NW3       30.16S
WAKEFIELD      SUNNY     74  44  34 CALM      30.15F
$$

VAZ020-022-025-037-045-222200-
WEST CENTRAL AND SOUTHWEST VIRGINIA

CITY           SKY/WX    TMP DP  RH WIND       PRES   REMARKS
STAUNTON*      MOSUNNY   74  39  27 W6        30.16R
WAYNESBORO*    FAIR      71  38  30 W7G16     30.15S
HOT SPRINGS VA MOSUNNY   62  33  33 NW7G18    30.22R
LYNCHBURG      MOSUNNY   73  43  33 NW7       30.18S
DANVILLE       SUNNY     75  39  27 VRB3      30.18S
SOUTH BOSTON*  FAIR      74  40  29 W5        30.17S
MARTINSVILLE   SUNNY     75  39  27 N9        30.21R
ROANOKE        MOSUNNY   73  40  30 W15       30.20F
BLACKSBURG     MOSUNNY   65  42  43 NW7       30.26R
DUBLIN*        SUNNY     69  40  35 W9        30.25R
MARION*        PTSUNNY   67  43  42 W9        30.28S
HILLSVILLE*    SUNNY     65  40  39 N14       30.25R
RICHLANDS*     FAIR      63  17  16 W7        30.28R
WISE*          SUNNY     66  36  32 N6        30.30R
ABINGDON*      SUNNY     68  39  34 N5        30.27R
$$

MDZ021>025-VAZ099-100-222200-
SOUTHERN MARYLAND AND THE DELMARVA PENINSULA

CITY           SKY/WX    TMP DP  RH WIND       PRES   REMARKS
PATUXENT RIVER MOSUNNY   74  42  31 W16       30.10S
BAY BRIDGE APT   N/A    N/A N/A N/A W10G16    30.07S
LEONARDTOWN    SUNNY     72  41  33 W14       30.12S
DOVER          MOSUNNY   74  48  40 W18G28    30.02S
GEORGETOWN     SUNNY     73  43  33 SW12G18   30.07S
EASTON         SUNNY     75  46  35 W14G23    30.11S
CAMBRIDGE      SUNNY     73  41  31 W9G16     30.09S
SALISBURY      SUNNY     71  47  42 SW15G23   30.09R
OCEAN CITY     SUNNY     73  42  32 NW10G24   30.08S
WALLOPS ISLAND SUNNY     72  39  30 W9G20     30.12R
ACCOMACK*      SUNNY     72  46  40 W10       30.12F
$$

NCZ012>017-030>032-222200-
NORTH CENTRAL AND EASTERN NORTH CAROLINA

CITY           SKY/WX    TMP DP  RH WIND       PRES   REMARKS
ROANOKE RAPIDS FAIR      72  43  35 W6        30.17S
RALEIGH        MOSUNNY   74  43  32 NE5       30.18F
ELIZABETH CITY SUNNY     73  46  38 CALM      30.17R
AHOSKIE*       SUNNY     71  42  35 NW5       30.17S
EDENTON*       SUNNY     72  45  38 W3        30.17S
CURRITUCK*     SUNNY     71  42  34 E7        30.18R
KILL DEVIL HLS SUNNY     67  41  38 E5        30.17S
MANTEO         SUNNY     68  46  46 N6        30.18S
CAPE HATTERAS  SUNNY     67  46  47 VRB6      30.18S
TARBORO*       FAIR      75  43  31 N6        30.19R
GOLDSBORO      SUNNY     74  45  35 VRB5      30.15S
WASHINGTON     SUNNY    N/A N/A N/A CALM      30.18S
GREENVILLE     SUNNY     73  45  35 W6        30.19S
NEW BERN       SUNNY     71  48  43 N8        30.19R
WILMINGTON     PTSUNNY   73  54  51 N6        30.17S
$$

VAZ048-222200-
ELSEWHERE

CITY           SKY/WX    TMP DP  RH WIND       PRES   REMARKS
HARRISBURG PA  MOSUNNY   72  43  35 W17       30.02R
BALTIMORE      MOSUNNY   74  41  30 W17G25    30.05F
ANNAPOLIS      MOSUNNY   73  41  31 W13G23    30.06S
ANDREWS AFB    MOSUNNY   74  43  31 W13       30.07S
PHILADELPHIA   PTSUNNY   76  39  26 W22G29    30.00S
HENDERSON NC   SUNNY     73  38  28 NW7       30.18S
GREENSBORO     MOSUNNY   74  40  29 VRB6      30.18F
ROCKY MOUNT    SUNNY     74  43  32 MISG      30.18R
$$

VAZ100-222200-
MARINE

STATION/POSITION TIME  TEMP    WIND        PRES    WAVE   SWELL
                       AIR SEA DIR/SP/G            HT/PER HT/PER
                 (UTC) (F)     (DEG/KT/KT) (MB)    (FT/S) (FT/S)
BRANDYWINE LGT   2000   68 63  290/ 22/ 25 1017.5R
CAPE MAY NJ      2000   68 68  270/ 15/ 18 1017.0S
LEWES DE         2000   70 63  290/ 17/ 22 1017.5S
15NM E FENWICK I 2050   64 61              1018.2R   2/ 6
OCEAN-CITY-INLET 2000   70 61  280/  9/ 12 1018.0F
WACHAPREAGUE VA  2000   72 69  280/  4/  8 1020.2F
THOMAS POINT MD  2100   72 65  250/ 12/ 14 1018.7S
GOOSES REEF MD   2100   71 66  280/ 12/ 19 1019.8F   2/ 3
SOLOMONS ISLAND  2000      69                N/A
BISHOPS HEAD MD  2000   68 70  240/ 14/ 16 1019.1F
PINEY POINT MD   2000          330/ 10/ 11   N/A
CAMBRIDGE MD     2000   71 69  250/ 13/ 17 1018.8R
LEWISETTA VA     2000   71 70              1019.4F
RAPPAHANNOCK LGT 2000          240/  1/  2 1020.9F
STINGRAY PT      2100   71 69  300/  8/  8 1020.1S   1
YORK RVR RNG VA  2000   70     280/ 12/ 14 1019.9F
YORKTOWN VA      2000   70 71  230/  8/ 12 1020.3F
JAMESTOWN VA     2100   71 75  290/ 10/ 14 1019.8S
DOMINION TERM VA 2000   68     320/  7/  9 1021.1S
KIPTOPEKE VA     2000      72  270/  7/  8   N/A
CHES BAY BRIDGE  2000   68 69   CALM  /  3 1020.6F
CAPE HENRY VA    2000   67     330/  6/  8 1019.8F
CHESAPEAKE LGHT  2000   64     270/  6/  6 1021.9S
WILLOUBY STN VA  2000   69     270/ 13/ 14 1021.5F
CAPE HENRY BUOY  2028      63                N/A     2/ 7
1ST LANDING BUOY 2100      69              1020.7F
CAPE CHARLES BUO 2026      66                N/A     2/ 7   2/ 7
OFFSHORE WE BUOY 2011      61                N/A     3/ 7   3/ 7
64NM E OF VA BCH 2050   61 61  280/ 10/ 12 1021.1R   4/ 7   3/ 7
DUCK PIER NC     2000   66 67   80/  5/  6 1020.6R
44100 DUCK FRF   2024      63                N/A     4/ 7
44056 DUCK FRF   2011      66                N/A     3/ 7
OREGON INLET NC  2000   64 67   30/  6/  9 1021.7F
HATTERAS NC      2000   66 72   50/  6/  9 1021.4R
DIAMOND SHLS NC  2050   65 77   20/  8/ 12 1022.1R   3/ 8   3/ 8
CAPE LOOKOUT NC  2100   67     100/  9/ 11 1021.7R
$$


USA.gov is the U.S. government's official web portal to all federal, state and local government web resources and services.